Change the Weather History Date:

Wednesday, November 28, 2012

  Actual Average Record
Temperature  
Mean Temperature 71 °F -  
Max Temperature 78 °F 81 °F 88 °F (1958)
Min Temperature 64 °F 61 °F 35 °F (1956)
Cooling Degree Days 6    
Growing Degree Days 21 (Base 50)    
Moisture  
Dew Point 65 °F    
Average Humidity 84    
Maximum Humidity 95    
Minimum Humidity 61    
Precipitation  
Precipitation 0.07 in - - ()
Sea Level Pressure  
Sea Level Pressure 30.17 in    
Wind  
Wind Speed 4 mph (North)    
Max Wind Speed 14 mph    
Max Gust Speed -    
Visibility 10 miles    
Events Rain    
Averages and records for this station are not official NWS values.
T = Trace of Precipitation, MM = Missing Value Source: NWS Daily Summary

Daily Weather History Graph

Daily Weather History Graph

Search for Another Location

Airport or City:

Trip Planner

Search our weather history database for the weather conditions in past years. The results will help you decide how hot, cold, wet, or windy it might be!

Date:

Astronomy

Nov. 28, 2012 Rise Set
Actual Time 6:48 AM EST 5:30 PM EST
Civil Twilight 6:23 AM EST 5:55 PM EST
Nautical Twilight 5:55 AM EST 6:23 PM EST
Astronomical Twilight 5:27 AM EST 6:51 PM EST
Moon 5:44 PM EST (11/28) 6:44 AM EST (11/28)
Length of Visible Light 11h 31m
Length of Day
10h 41m
Full, 100% of the Moon is Illuminated
Nov 28
Full
Dec 6
Last Quarter
Dec 13
New
Dec 20
First Quarter
Dec 28
Full

Hourly Weather History & Observations

Time (EST) Temp. Dew Point Humidity Pressure Visibility Wind Dir Wind Speed Gust Speed Precip Events Conditions
12:55 AM 65.7 °F 63.9 °F 94% 30.13 in 10.0 mi Calm Calm - N/A   Clear
1:55 AM 65.3 °F 63.5 °F 94% 30.12 in 10.0 mi Calm Calm - N/A   Clear
2:55 AM 64.4 °F 62.8 °F 94% 30.12 in 10.0 mi Calm Calm - N/A   Clear
3:55 AM 64.8 °F 63.3 °F 95% 30.12 in 10.0 mi Calm Calm - N/A   Clear
4:55 AM 64.9 °F 63.5 °F 95% 30.12 in 10.0 mi Calm Calm - N/A   Clear
5:55 AM 65.3 °F 63.5 °F 94% 30.13 in 10.0 mi Calm Calm - N/A   Clear
6:55 AM 64.8 °F 62.8 °F 93% 30.14 in 10.0 mi North 5.8 mph - N/A   Clear
7:55 AM 65.8 °F 64.2 °F 94% 30.16 in 10.0 mi Calm Calm - N/A   Clear
8:55 AM 68.2 °F 65.8 °F 92% 30.18 in 10.0 mi North 9.2 mph - N/A   Partly Cloudy
9:55 AM 71.2 °F 66.2 °F 84% 30.20 in 10.0 mi North 8.1 mph - N/A   Clear
10:55 AM 75.0 °F 66.4 °F 74% 30.20 in 10.0 mi North 10.4 mph - N/A   Partly Cloudy
11:55 AM 76.5 °F 66.6 °F 71% 30.18 in 10.0 mi North 5.8 mph - N/A   Partly Cloudy
12:12 PM 77.0 °F 66.2 °F 69% 30.17 in 10.0 mi Variable 6.9 mph - N/A   Mostly Cloudy
12:20 PM 77.0 °F 66.2 °F 69% 30.17 in 10.0 mi NNE 9.2 mph - N/A   Scattered Clouds
12:55 PM 77.2 °F 64.4 °F 65% 30.15 in 10.0 mi North 9.2 mph - N/A   Scattered Clouds
1:55 PM 78.4 °F 64.0 °F 61% 30.14 in 10.0 mi North 9.2 mph - N/A   Partly Cloudy
2:55 PM 77.5 °F 63.1 °F 61% 30.13 in 10.0 mi NNE 11.5 mph - N/A   Clear
3:55 PM 76.6 °F 65.1 °F 67% 30.13 in 10.0 mi ENE 4.6 mph - N/A   Partly Cloudy
4:55 PM 74.5 °F 64.8 °F 72% 30.14 in 10.0 mi ENE 3.5 mph - N/A   Clear
5:55 PM 72.5 °F 63.9 °F 74% 30.15 in 10.0 mi North 3.5 mph - N/A   Clear
6:55 PM 71.1 °F 63.0 °F 75% 30.16 in 10.0 mi NE 3.5 mph - N/A   Scattered Clouds
7:55 PM 70.2 °F 63.5 °F 79% 30.17 in 10.0 mi NE 4.6 mph - N/A   Mostly Cloudy
8:55 PM 71.4 °F 66.4 °F 84% 30.19 in 10.0 mi NNE 8.1 mph - N/A   Scattered Clouds
9:30 PM 71.6 °F 64.4 °F 78% 30.19 in 10.0 mi NNE 13.8 mph - N/A Rain Light Rain
9:39 PM 69.8 °F 64.4 °F 83% 30.20 in 9.0 mi NNE 9.2 mph - N/A Rain Light Rain
9:47 PM 69.8 °F 64.4 °F 83% 30.19 in 8.0 mi NNE 6.9 mph - N/A Rain Light Rain
9:55 PM 69.1 °F 65.1 °F 87% 30.19 in 10.0 mi NNE 6.9 mph - 0.00 in Rain Light Rain
9:57 PM 68.0 °F 66.2 °F 94% 30.19 in 10.0 mi NNE 8.1 mph - N/A   Light Drizzle
10:04 PM 68.0 °F 66.2 °F 94% 30.19 in 10.0 mi North 8.1 mph - N/A Rain Light Rain
10:08 PM 68.0 °F 66.2 °F 94% 30.19 in 10.0 mi North 9.2 mph - N/A Rain Light Rain
10:11 PM 68.0 °F 64.4 °F 88% 30.19 in 10.0 mi North 11.5 mph - N/A   Light Drizzle
10:13 PM 68.0 °F 64.4 °F 88% 30.19 in 10.0 mi North 9.2 mph - N/A Rain Light Rain
10:38 PM 68.0 °F 66.2 °F 94% 30.20 in 6.0 mi North 10.4 mph - N/A Rain Light Rain
10:55 PM 67.6 °F 65.3 °F 92% 30.20 in 6.0 mi North 8.1 mph - 0.05 in Rain Rain
11:04 PM 68.0 °F 64.4 °F 88% 30.19 in 10.0 mi North 5.8 mph - N/A Rain Light Rain
11:07 PM 68.0 °F 64.4 °F 88% 30.19 in 10.0 mi North 4.6 mph - N/A Rain Light Rain
11:17 PM 68.0 °F 64.4 °F 88% 30.19 in 10.0 mi North 3.5 mph - N/A   Light Drizzle
11:21 PM 68.0 °F 64.4 °F 88% 30.19 in 10.0 mi North 4.6 mph - N/A   Scattered Clouds
11:42 PM 68.0 °F 66.2 °F 94% 30.18 in 10.0 mi North 5.8 mph - N/A   Light Drizzle
11:44 PM 68.0 °F 66.2 °F 94% 30.18 in 9.0 mi NNW 6.9 mph - N/A Rain Rain
11:55 PM 67.1 °F 65.1 °F 93% 30.18 in 9.0 mi NNW 6.9 mph - 0.02 in Rain Light Rain
11:58 PM 68.0 °F 64.4 °F 88% 30.17 in 10.0 mi NNW 6.9 mph - N/A   Light Drizzle